DW1024 Weather Reports


time (UTC)temp
C
wind
direction
speed
KPH
gust
KPH
rain 1hr
cm
rain 24hr
cm
rain mn
cm
humidity
%
barometer
mb
20260831060404 18 233 4.8 19.3 0.00 0.00 0.00 78 1018.3
20260831054904 18 136 4.8 24.1 0.00 0.00 0.00 79 1018.3
20260831053405 18 302 4.8 20.9 0.00 0.00 0.00 81 1018.2
20260831051904 18 205 6.4 12.9 0.00 0.00 0.00 81 1018.1
20260831050404 17 228 3.2 16.1 0.00 0.00 0.00 82 1018.1
20260831044904 17 263 4.8 12.9 0.00 0.00 0.00 84 1017.9
20260831043411 17 194 3.2 12.9 0.00 0.00 0.00 85 1017.9
20260831040415 17 155 3.2 11.3 0.00 0.00 0.00 85 1018.1
20260831034921 17 321 3.2 8.0 0.00 0.00 0.00 84 1017.6
20260831033418 17 291 4.8 17.7 0.00 0.00 0.00 86 1017.7
20260831031905 17 201 6.4 22.5 0.00 0.00 0.00 86 1018.3
20260831030409 18 217 9.7 37.0 0.00 0.00 0.00 85 1018.7
20260831023408 18 195 0.0 4.8 0.00 0.00 0.00 85 1015.8
20260831021905 18 246 1.6 6.4 0.00 0.00 0.00 84 1015.9
20260831020405 18 222 1.6 6.4 0.00 0.00 0.00 84 1015.6
20260831013403 18 208 0.0 0.0 0.00 0.00 0.00 85 1015.7
20260831011901 18 198 0.0 0.0 0.00 0.00 0.00 84 1015.8
20260831004901 18 211 0.0 3.2 0.00 0.00 0.00 84 1016.2
20260831003402 18 211 0.0 1.6 0.00 0.00 0.00 83 1016.3
20260831001902 19 211 0.0 1.6 0.00 0.00 0.00 83 1016.5
20260831000403 19 211 1.6 3.2 0.00 0.00 0.00 82 1016.6
20260830234858 19 205 1.6 4.8 0.00 0.00 0.00 82 1016.5
20260830233359 19 202 0.0 3.2 0.00 0.00 0.00 81 1016.7
20260830230356 19 202 1.6 4.8 0.00 0.00 0.00 80 1017.0
20260830224858 19 200 0.0 3.2 0.00 0.00 0.00 80 1017.0
20260830223357 20 204 1.6 4.8 0.00 0.00 0.00 79 1017.2
20260830221901 20 210 0.0 3.2 0.00 0.00 0.00 79 1017.4
20260830220358 20 210 0.0 1.6 0.00 0.00 0.00 78 1017.4
20260830214857 20 210 0.0 3.2 0.00 0.00 0.00 77 1017.3
20260830213357 20 209 0.0 3.2 0.00 0.00 0.00 77 1017.2
20260830211856 20 210 0.0 3.2 0.00 0.00 0.00 77 1017.3
20260830203357 21 210 0.0 3.2 0.00 0.00 0.00 74 1017.2
20260830201900 21 210 1.6 3.2 0.00 0.00 0.00 73 1017.2
20260830194855 21 290 0.0 0.0 0.00 0.00 0.00 71 1017.5
20260830191853 21 290 0.0 0.0 0.00 0.00 0.00 74 1017.4
20260830190358 21 290 0.0 0.0 0.00 0.00 0.00 71 1017.3
20260830181853 23 290 0.0 0.0 0.00 0.00 0.00 65 1016.9
20260830180343 23 290 0.0 0.0 0.00 0.00 0.00 65 1016.9
20260830171845 24 290 0.0 4.8 0.00 0.00 0.00 60 1016.8
20260830170344 25 271 1.6 8.0 0.00 0.00 0.00 58 1016.8
20260830163337 25 265 1.6 9.7 0.00 0.00 0.00 58 1016.7
20260830161832 26 266 3.2 8.0 0.00 0.00 0.00 54 1016.7
20260830160332 26 275 1.6 9.7 0.00 0.00 0.00 54 1016.7
20260830154831 26 281 4.8 11.3 0.00 0.00 0.00 52 1016.7
20260830153331 26 263 3.2 12.9 0.00 0.00 0.00 52 1016.7
20260830151831 27 247 3.2 9.7 0.00 0.00 0.00 50 1016.7
20260830144831 27 151 3.2 11.3 0.00 0.00 0.00 50 1016.7
20260830143328 28 254 3.2 11.3 0.00 0.00 0.00 47 1016.8
20260830141825 28 259 3.2 14.5 0.00 0.00 0.00 50 1016.8
20260830140323 28 192 3.2 16.1 0.00 0.00 0.00 48 1016.9
20260830134823 28 299 3.2 11.3 0.00 0.00 0.00 48 1016.9
20260830133028 28 236 3.2 14.5 0.00 0.00 0.00 47 1017.1
20260830130317 27 254 4.8 16.1 0.00 0.00 0.00 50 1017.1
20260830123319 27 164 1.6 6.4 0.00 0.00 0.00 50 1017.4
20260830120319 27 284 3.2 11.3 0.00 0.00 0.00 50 1017.7
20260830114810 27 282 3.2 14.5 0.00 0.00 0.00 51 1017.7
20260830113311 27 282 3.2 14.5 0.00 0.00 0.00 52 1017.7
20260830104814 26 302 3.2 11.3 0.00 0.00 0.00 52 1018.3
20260830103304 26 252 3.2 14.5 0.00 0.00 0.00 51 1018.5
20260830101803 26 210 3.2 11.3 0.00 0.00 0.00 53 1018.5
20260830100309 26 260 3.2 12.9 0.00 0.00 0.00 53 1018.8
20260830094804 25 186 6.4 22.5 0.00 0.00 0.00 54 1018.9
20260830093305 26 243 4.8 16.1 0.00 0.00 0.00 56 1018.9
20260830091804 26 292 3.2 12.9 0.00 0.00 0.00 56 1018.9
20260830090304 25 247 3.2 11.3 0.00 0.00 0.00 56 1018.9
20260830084802 24 203 3.2 14.5 0.00 0.00 0.00 59 1019.0
20260830083302 24 271 3.2 8.0 0.00 0.00 0.00 59 1019.0
20260830081803 23 269 3.2 9.7 0.00 0.00 0.00 60 1019.0
20260830080304 23 288 3.2 8.0 0.00 0.00 0.00 60 1019.1
20260830074803 22 227 1.6 8.0 0.00 0.00 0.00 65 1019.1
20260830073303 22 182 3.2 6.4 0.00 0.00 0.00 69 1019.2
20260830071805 20 221 1.6 3.2 0.00 0.00 0.00 76 1019.1
20260830070305 18 217 0.0 0.0 0.00 0.00 0.00 79 1019.2
20260830064803 18 217 0.0 0.0 0.00 0.00 0.00 79 1019.2
20260830063301 18 217 0.0 4.8 0.00 0.00 0.00 81 1019.1